Change the Weather History Date:

Saturday, March 15, 2014

  Actual Average (KLND) Record (KLND)
Temperature  
Mean Temperature 28 °F 36 °F  
Max Temperature 32 °F 47 °F 68 °F (2013)
Min Temperature 23 °F 24 °F -10 °F (1906)
Degree Days  
Heating Degree Days 38 30  
Month to date heating degree days 482  
Since 1 July heating degree days 6186  
Cooling Degree Days 0 0  
Month to date cooling degree days 0  
Year to date cooling degree days 0  
Moisture  
Dew Point 15 °F    
Average Humidity 57    
Maximum Humidity 93    
Minimum Humidity 34    
Precipitation  
Precipitation 0.00 in 0.04 in 0.76 in (1924)
Month to date precipitation 0.46  
Year to date precipitation 1.45  
Snow  
Snow 0.00 in 0.50 in - ()
Month to date snowfall 6.7  
Since 1 July snowfall 60.3  
Snow Depth -    
Sea Level Pressure  
Sea Level Pressure 30.11 in    
Wind  
Wind Speed 11 mph (WNW)    
Max Wind Speed 31 mph    
Max Gust Speed 40 mph    
Visibility 10 miles    
Events Snow    
T = Trace of Precipitation, MM = Missing Value Source: NWS Daily Summary

Daily Weather History Graph

Daily Weather History Graph

Search for Another Location

Airport or City:

Trip Planner

Search our weather history database for the weather conditions in past years. The results will help you decide how hot, cold, wet, or windy it might be!

Date:

Astronomy

Mar. 15, 2014 Rise Set
Actual Time 7:26 AM MDT 7:21 PM MDT
Civil Twilight 6:58 AM MDT 7:49 PM MDT
Nautical Twilight 6:26 AM MDT 8:22 PM MDT
Astronomical Twilight 5:53 AM MDT 8:55 PM MDT
Moon 6:43 PM MDT (3/15) 6:41 AM MDT (3/15)
Length of Visible Light 12h 50m
Length of Day
11h 54m
Waxing Gibbous, 99% of the Moon is Illuminated
Mar 15
Waxing Gibbous
Mar 16
Full
Mar 23
Last Quarter
Mar 30
New
Apr 7
First Quarter

Hourly Weather History & Observations

Time (MDT) Temp. Windchill Dew Point Humidity Pressure Visibility Wind Dir Wind Speed Gust Speed Precip Events Conditions
12:15 AM 30.2 °F 16.8 °F 26.6 °F 86% 29.85 in 7.0 mi WSW 23.0 mph 26.5 mph N/A Snow Light Snow
12:35 AM 30.2 °F 21.9 °F 24.8 °F 80% 29.86 in 10.0 mi West 9.2 mph 24.2 mph N/A   Mostly Cloudy
12:55 AM 30.2 °F 20.8 °F 24.8 °F 80% 29.84 in 10.0 mi West 11.5 mph 20.7 mph N/A   Overcast
1:15 AM 30.2 °F 24.3 °F 23.0 °F 75% 29.86 in 10.0 mi North 5.8 mph - N/A   Scattered Clouds
1:35 AM 30.2 °F 23.4 °F 21.2 °F 69% 29.86 in 10.0 mi WSW 6.9 mph - N/A   Scattered Clouds
1:55 AM 28.4 °F 20.4 °F 23.0 °F 80% 29.87 in 10.0 mi West 8.1 mph - N/A   Clear
2:15 AM 28.4 °F 20.4 °F 21.2 °F 74% - 10.0 mi West 8.1 mph - N/A   Clear
2:35 AM 28.4 °F 18.5 °F 19.4 °F 69% - 10.0 mi West 11.5 mph 16.1 mph N/A   Clear
2:55 AM 28.4 °F 20.4 °F 19.4 °F 69% - 10.0 mi WSW 8.1 mph 12.7 mph N/A   Clear
3:15 AM 26.6 °F 17.5 °F 23.0 °F 86% - 2.0 mi WSW 9.2 mph - N/A Snow Light Snow
3:35 AM 26.6 °F 22.6 °F 21.2 °F 80% - 10.0 mi WNW 3.5 mph - N/A   Mostly Cloudy
3:55 AM 28.4 °F 19.7 °F 19.4 °F 69% - 10.0 mi WNW 9.2 mph 18.4 mph N/A   Scattered Clouds
4:15 AM 28.4 °F 19.1 °F 17.6 °F 64% - 10.0 mi WNW 10.4 mph 20.7 mph N/A   Scattered Clouds
4:35 AM 26.6 °F 15.7 °F 17.6 °F 69% - 10.0 mi West 12.7 mph 19.6 mph N/A   Clear
4:55 AM 26.6 °F 19.1 °F 15.8 °F 64% - 10.0 mi NNW 6.9 mph 19.6 mph N/A   Scattered Clouds
5:15 AM 26.6 °F 22.6 °F 14.0 °F 59% - 10.0 mi NNW 3.5 mph - N/A   Mostly Cloudy
5:35 AM 26.6 °F - 15.8 °F 64% - 10.0 mi Calm Calm - N/A   Overcast
5:55 AM 26.6 °F 16.2 °F 19.4 °F 74% - 10.0 mi North 11.5 mph - N/A   Overcast
6:15 AM 23.0 °F 15.8 °F 21.2 °F 93% - 3.0 mi North 5.8 mph - N/A Snow Light Snow
6:35 AM 23.0 °F 14.7 °F 21.2 °F 93% - 10.0 mi NNW 6.9 mph - N/A   Overcast
6:55 AM 24.8 °F 14.6 °F 17.6 °F 74% - 10.0 mi NNW 10.4 mph - N/A   Overcast
7:15 AM 24.8 °F 16.9 °F 10.4 °F 54% - 10.0 mi WNW 6.9 mph - N/A   Overcast
7:35 AM 23.0 °F 11.1 °F 5.0 °F 46% - 10.0 mi NNW 12.7 mph - N/A   Overcast
7:55 AM 23.0 °F 11.1 °F 3.2 °F 43% - 10.0 mi NNW 12.7 mph - N/A   Overcast
8:15 AM 23.0 °F 13.1 °F -0.4 °F 36% - 10.0 mi NW 9.2 mph - N/A   Overcast
8:35 AM 24.8 °F 11.1 °F -0.4 °F 34% - 10.0 mi NW 18.4 mph 29.9 mph N/A   Mostly Cloudy
8:55 AM 24.8 °F 8.7 °F 3.2 °F 40% - 7.0 mi NNW 26.5 mph 34.5 mph N/A   Scattered Clouds
9:15 AM 26.6 °F 12.4 °F 3.2 °F 37% 29.98 in 10.0 mi NNW 21.9 mph 29.9 mph N/A   Clear
9:35 AM 26.6 °F 12.4 °F 3.2 °F 37% 30.00 in 10.0 mi NNW 21.9 mph 26.5 mph N/A   Clear
9:55 AM 26.6 °F 10.0 °F 5.0 °F 40% 30.00 in 10.0 mi NNW 31.1 mph 40.3 mph N/A   Clear
10:15 AM 28.4 °F 13.3 °F 5.0 °F 37% 30.03 in 10.0 mi North 27.6 mph 36.8 mph N/A   Clear
10:35 AM 28.4 °F 16.2 °F 5.0 °F 37% 30.06 in 10.0 mi North 17.3 mph 28.8 mph N/A   Scattered Clouds
10:55 AM 28.4 °F 14.4 °F 6.8 °F 40% 30.07 in 10.0 mi North 23.0 mph 28.8 mph N/A   Scattered Clouds
11:15 AM 30.2 °F 17.1 °F 8.6 °F 40% 30.08 in 10.0 mi North 21.9 mph 26.5 mph N/A   Mostly Cloudy
11:35 AM 30.2 °F 17.1 °F 6.8 °F 37% 30.09 in 10.0 mi NNW 21.9 mph 29.9 mph N/A   Mostly Cloudy
11:55 AM 30.2 °F 19.3 °F 8.6 °F 40% 30.12 in 10.0 mi North 15.0 mph 19.6 mph N/A   Overcast
12:15 PM 30.2 °F 18.9 °F 10.4 °F 44% 30.12 in 10.0 mi North 16.1 mph 26.5 mph N/A   Overcast
12:35 PM 30.2 °F 18.5 °F 10.4 °F 44% 30.13 in 10.0 mi NNW 17.3 mph 24.2 mph N/A   Overcast
12:55 PM 30.2 °F 20.2 °F 10.4 °F 44% 30.14 in 10.0 mi NNW 12.7 mph 21.9 mph N/A   Overcast
1:15 PM 30.2 °F 21.3 °F 12.2 °F 47% 30.15 in 10.0 mi NNW 10.4 mph 19.6 mph N/A   Mostly Cloudy
1:35 PM 32.0 °F 24.8 °F 12.2 °F 44% 30.16 in 10.0 mi NNE 8.1 mph 16.1 mph N/A   Scattered Clouds
1:55 PM 32.0 °F 23.0 °F 17.6 °F 55% 30.16 in 10.0 mi NE 11.5 mph 16.1 mph N/A   Scattered Clouds
2:15 PM 30.2 °F 22.6 °F 17.6 °F 60% 30.16 in 10.0 mi NE 8.1 mph - N/A   Clear
2:35 PM 30.2 °F 23.4 °F 17.6 °F 60% 30.17 in 10.0 mi SSW 6.9 mph 20.7 mph N/A   Mostly Cloudy
2:55 PM 30.2 °F 21.3 °F 17.6 °F 60% 30.18 in 10.0 mi South 10.4 mph - N/A   Overcast
3:15 PM 30.2 °F 23.4 °F 17.6 °F 60% 30.18 in 10.0 mi South 6.9 mph 16.1 mph N/A   Overcast
3:35 PM 32.0 °F 25.6 °F 17.6 °F 55% 30.19 in 10.0 mi South 6.9 mph - N/A   Overcast
3:55 PM 32.0 °F 27.5 °F 14.0 °F 48% 30.20 in 10.0 mi SSW 4.6 mph - N/A   Overcast
4:15 PM 32.0 °F 25.6 °F 15.8 °F 51% 30.20 in 10.0 mi South 6.9 mph - N/A   Mostly Cloudy
4:35 PM 32.0 °F 24.8 °F 14.0 °F 48% 30.20 in 10.0 mi South 8.1 mph - N/A   Scattered Clouds
4:55 PM 32.0 °F 23.6 °F 19.4 °F 60% 30.20 in 10.0 mi SSE 10.4 mph - N/A   Clear
5:15 PM 32.0 °F 24.8 °F 19.4 °F 60% 30.20 in 10.0 mi SE 8.1 mph - N/A   Clear
5:35 PM 32.0 °F 26.4 °F 19.4 °F 60% 30.20 in 10.0 mi SE 5.8 mph - N/A   Clear
5:55 PM 30.2 °F 26.7 °F 19.4 °F 64% 30.21 in 10.0 mi SE 3.5 mph - N/A   Clear
6:15 PM 30.2 °F 26.7 °F 19.4 °F 64% 30.21 in 10.0 mi SE 3.5 mph - N/A   Clear
6:35 PM 30.2 °F - 19.4 °F 64% 30.21 in 10.0 mi Calm Calm - N/A   Clear
6:55 PM 30.2 °F 26.7 °F 19.4 °F 64% 30.21 in 10.0 mi ESE 3.5 mph - N/A   Clear
7:15 PM 28.4 °F 24.6 °F 19.4 °F 69% 30.21 in 10.0 mi SE 3.5 mph - N/A   Clear
7:35 PM 28.4 °F - 14.0 °F 55% 30.21 in 10.0 mi Calm Calm - N/A   Clear
7:55 PM 28.4 °F - 17.6 °F 64% 30.21 in 10.0 mi Calm Calm - N/A   Clear
8:15 PM 28.4 °F - 15.8 °F 59% 30.21 in 10.0 mi Calm Calm - N/A   Clear
8:35 PM 30.2 °F - 12.2 °F 47% 30.21 in 10.0 mi Calm Calm - N/A   Clear
8:55 PM 26.6 °F 21.2 °F 15.8 °F 64% 30.22 in 10.0 mi West 4.6 mph - N/A   Clear
9:15 PM 28.4 °F - 14.0 °F 55% - 10.0 mi Calm Calm - N/A   Clear
9:35 PM 28.4 °F - 14.0 °F 55% - 10.0 mi Calm Calm - N/A   Clear
9:55 PM 30.2 °F - 12.2 °F 47% - 10.0 mi Calm Calm - N/A   Clear
10:15 PM 30.2 °F - 10.4 °F 44% - 10.0 mi Calm Calm - N/A   Clear
10:35 PM 30.2 °F - 10.4 °F 44% - 10.0 mi Calm Calm - N/A   Clear
10:55 PM 28.4 °F 24.6 °F 12.2 °F 51% - 10.0 mi WSW 3.5 mph - N/A   Clear
11:15 PM 28.4 °F 23.3 °F 12.2 °F 51% - 10.0 mi WSW 4.6 mph - N/A   Clear
11:35 PM 28.4 °F - 12.2 °F 51% - 10.0 mi Calm Calm - N/A   Clear
11:55 PM 28.4 °F 24.6 °F 10.4 °F 47% - 10.0 mi SSE 3.5 mph - N/A   Clear